Regional Weather Roundup
Issued by NWS

Home | Current Version | Previous Version | Text Only | Print | Product List | Glossary On
Versions: 1 2 3 4 5 6 7 8 9 10 11 12 13 14 15 16 17 18 19 20 21 22 23 24 25 26 27 28 29 30 31 32 33 34 35 36 37 38 39 40 41 42 43 44 45 46 47 48 49 50
000
ASUS45 KABQ 300310
RWRNM
NEW MEXICO REGIONAL WEATHER ROUNDUP
NATIONAL WEATHER SERVICE ALBUQUERQUE NM
900 PM MDT SAT APR 29 2017

NOTE: "FAIR" MEANS FEW OR NO CLOUDS BELOW 12,000 FEET AGL WITH NO
       SIGNIFICANT WEATHER OR OBSTRUCTIONS TO VISION.

      THIS PRODUCT IS RELEASED AS TWO VERSIONS.  ONE VERSION NEAR
      THE TOP OF THE HOUR CONTAINING PRELIMINARY DATA FROM ALBUQUERQUE
      AND OTHER STATIONS.  A FINAL VERSION WITH ADDITIONAL DATA IS
      ISSUED ABOUT 10 MINUTES AFTER THE HOUR.

NMZ501-503-504-510>518-300400-
NORTHWEST PLATEAU/NORTHCENTRAL MOUNTAINS

CITY           SKY/WX    TMP DP  RH WIND       PRES   REMARKS
FARMINGTON     FAIR      43  28  55 N5        29.99R
LOS ALAMOS     LGT SNOW  29  29 100 NE7       30.03R WCI  22
SANTA FE       MOCLDY    33  28  81 N21       30.01R WCI  21
TAOS             N/A     30  16  55 N17       30.00R WCI  18
ANGEL FIRE     LGT SNOW  21  19  92 CALM      30.00S

$$
NMZ402-403-502-505>509-300400-
WESTCENTRAL MOUNTAINS/SOUTHWEST MOUNTAINS

CITY           SKY/WX    TMP DP  RH WIND       PRES   REMARKS
GALLUP         MOCLDY    36  31  82 NE3       30.06R
GRANTS         CLOUDY    34  32  92 N3        30.06R
SILVER CITY    FAIR      45  26  45 NW16G23   30.06R

$$
NMZ407-409-411-412-300400-
SOUTHERN DESERTS

CITY           SKY/WX    TMP DP  RH WIND       PRES   REMARKS
DEMING         FAIR      50  28  42 N5        30.03R
LAS CRUCES     FAIR      51  25  36 NW7       30.01R
HOLLOMAN AFB   FAIR      44  36  71 NW3       30.06R
ALAMOGORDO     FAIR      45  34  65 N8        30.02R
T OR C         MOCLDY    45  32  60 N8        30.03R

$$
NMZ519>523-300400-
CENTRAL VALLEYS/CENTRAL HIGHLANDS

CITY           SKY/WX    TMP DP  RH WIND       PRES   REMARKS
ALBUQUERQUE    LGT RAIN  38  35  89 SW10      30.05R WCI  31
DOUBLE EAGLE   CLOUDY    36  32  87 CALM      30.05R
MORIARTY ARPT  FLURRIES  34  33  98 S12       30.05R WCI  25
CLINES CORNERS LGT SNOW  28  26  92 SE5       30.03R FOG     WCI  23
BELEN          LGT RAIN  38  35  87 NE5       30.07R WCI  35
SOCORRO        RAIN      38  36  91 NW12G23   30.06R WCI  31

$$
NMZ524>526-539-540-300400-
SOUTHCENTRAL MOUNTAINS

CITY           SKY/WX    TMP DP  RH WIND       PRES   REMARKS
RUIDOSO        CLOUDY    28  25  86 N6        30.06R WCI  22

$$
NMZ527>531-300400-
NORTHEAST HIGHLANDS/NORTHEAST PLAINS

CITY           SKY/WX    TMP DP  RH WIND       PRES   REMARKS
LAS VEGAS      FLURRIES  25  21  85 N16       30.00R WCI  12
RATON          MIX PCPN  28  19  69 N30G43    29.97R WCI  12
CLAYTON        SNOW      29  29 100 N32G41    29.93R VSB 1/2 WCI  13

$$
NMZ532>537-300400-
EASTCENTRAL PLAINS

CITY           SKY/WX    TMP DP  RH WIND       PRES   REMARKS
SANTA ROSA     FLURRIES  32  32 100 N10       30.04R WCI  24
TUCUMCARI      LGT SNOW  34  32  92 N22G30    30.02R VSB 1   WCI  22
CANNON AFB     LGT RAIN  32  32 100 N23G31    29.99R WCI  19
CLOVIS AIRPORT CLOUDY    34  28  80 N24G31    29.98R WCI  21

$$
NMZ028-029-538-300400-
SOUTHEAST PLAINS

CITY           SKY/WX    TMP DP  RH WIND       PRES   REMARKS
ROSWELL        FAIR      40  33  76 N14         N/A  WCI  32
ARTESIA        FAIR      39  36  87 N14       30.08R WCI  31
CARLSBAD       FAIR      41  36  82 N21       30.05R
HOBBS          FAIR      37  32  81 NW21G26   30.04R WCI  27


$$



USA.gov is the U.S. government's official web portal to all federal, state and local government web resources and services.